Weather Roundup
Issued by NWS

Home | Current Version | Previous Version | Text Only | Print | Product List | Glossary On
Versions: 1 2 3 4 5 6 7 8 9 10 11 12 13 14 15 16 17 18 19 20 21 22 23 24 25 26 27 28 29 30 31 32 33 34 35 36 37 38 39 40 41 42 43 44 45 46 47 48 49 50
127
NZUS93 KARX 240359
HRRWXR

CURRENT HOURLY OBSERVATIONS ACROSS
MUCH OF THE UPPER MISSISSIPPI VALLEY
NATIONAL WEATHER SERVICE LA CROSSE WI
1100 PM CDT TUE MAY 23 2017


...SOUTHEAST MINNESOTA...


CITY           SKY/WX    TMP DP  RH WIND       PRES   REMARKS
ROCHESTER      CLOUDY    50  49  96 N12       29.78S
ROCHESTER/MAYO NOT AVBL
WINONA         CLOUDY    54  46  76 NE3       29.77S
AUSTIN         CLOUDY    52  46  82 N8        29.76F
ALBERT LEA     LGT RAIN  52  52 100 N3        29.78S
DODGE CENTER   CLOUDY    50  48  93 N8        29.78F
PRESTON        CLOUDY    50  47  89 N8        29.75S
OWATONNA       CLOUDY    52  46  82 N9        29.80S
FARIBAULT      CLOUDY    54  48  82 N6        29.80F
$$

...ELSEWHERE IN MINNESOTA...


CITY           SKY/WX    TMP DP  RH WIND       PRES   REMARKS
MINNEAPOLIS    MOCLDY    55  44  66 NE10      29.82S
INTNL FALLS    CLEAR     38  37  97 CALM      29.92F
DULUTH         CLOUDY    48  45  89 NE6       29.88F
RED WING       CLOUDY    55  45  67 NE8       29.78F
REDWOOD FALLS  CLOUDY    53  45  74 N7        29.85S
MANKATO        CLOUDY    52  48  86 N8        29.82S
WORTHINGTON    MOCLDY    47  45  93 N7        29.86S
FAIRMONT       CLOUDY    51  48  89 NW9       29.82F
$$

...SOUTHWEST WISCONSIN...


CITY           SKY/WX    TMP DP  RH WIND       PRES   REMARKS
LA CROSSE      LGT RAIN  53  50  89 N6        29.75R
PRAIRIE DU CHI CLOUDY    55  49  82 NE3       29.71S
BOSCOBEL       CLOUDY    54  51  90 VRB3      29.71F
LONE ROCK      NOT AVBL
PLATTEVILLE    MOCLDY    54  54 100 N6        29.70S
FORT MC COY    LGT RAIN  49  49  98 NE5       29.76S
MAUSTON-NEW LI DRIZZLE   50  49  95 N5        29.74F
VIROQUA        CLOUDY    51  49  95 MISG      29.73S
WIS DELLS      DRIZZLE   50  48  93 NE5       29.73S
$$

...ELSEWHERE IN WISCONSIN...


CITY           SKY/WX    TMP DP  RH WIND       PRES   REMARKS
MILWAUKEE      FOG       47  47 100 NE6       29.71F VSB 1/2
MADISON        CLOUDY    53  51  93 NE10      29.70S
GREEN BAY      LGT RAIN  51  50  96 NE21G26   29.75F
EAU CLAIRE     NOT AVBL
BLACK RVR FLS  RAIN      51  51 100 NE7       29.76F
MEDFORD        CLOUDY    50  44  79 NE7       29.79R
WAUSAU         LGT RAIN  50  49  96 CALM      29.77S
WIS RAPIDS     CLOUDY    50  47  89 NE7       29.77F
MARSHFIELD     LGT RAIN  49  45  86 E6        29.77S
RICE LAKE      CLOUDY    48  43  83 N10       29.85S
$$

...NORTHEAST IOWA...


CITY           SKY/WX    TMP DP  RH WIND       PRES   REMARKS
WATERLOO       CLOUDY    52  50  93 NW6       29.72S
DUBUQUE        CLOUDY    52  49  89 N7        29.69F
DECORAH        CLOUDY    52  50  93 NE8       29.72S
MASON CITY     CLOUDY    51  48  89 N14       29.77F
CHARLES CITY   CLOUDY    52  52 100 N10       29.74F
OELWEIN        MOCLDY    52  52 100 N8        29.72S
$$

...ELSEWHERE IN IOWA...


CITY           SKY/WX    TMP DP  RH WIND       PRES   REMARKS
DES MOINES     PTCLDY    51  48  89 NW6       29.75S
IOWA CITY      MOCLDY    52  48  86 CALM      29.72F
FORT DODGE     CLOUDY    50  46  87 N7        29.79S
MARSHALLTOWN   MOCLDY    50  48  93 NW7       29.72F
CEDAR RAPIDS   PTCLDY    50  49  96 N5        29.70F
$$

...NORTHERN ILLINOIS...


CITY           SKY/WX    TMP DP  RH WIND       PRES   REMARKS
CHICAGO-OHARE  LGT RAIN  56  53  90 E6        29.67F
CHICAGO-MIDWAY LGT RAIN  57  54  89 NE3       29.67F
MOLINE         PTCLDY    53  48  83 W5        29.69F
ROCKFORD       FOG       51  50  96 CALM      29.71F VSB 1/4
PEORIA         LGT RAIN  56  55  97 CALM      29.69S
$$

NOTE: "FAIR" INDICATES FEW OR NO CLOUDS BELOW 12,000 FEET WITH NO
SIGNIFICANT WEATHER AND/OR OBSTRUCTIONS TO VISIBILITY. WIND
SPEEDS ARE IN MILES-PER-HOUR.




USA.gov is the U.S. government's official web portal to all federal, state and local government web resources and services.